EW2359 Weather Reports


time (UTC)temp
C
wind
direction
speed
KPH
gust
KPH
rain 1hr
cm
rain 24hr
cm
rain mn
cm
humidity
%
barometer
mb
20260906073542 23 356 3.2 9.7 0.00 0.00 0.00 85 1014.1
20260906073042 23 14 4.8 9.7 0.00 0.00 0.00 86 1014.1
20260906072542 23 20 0.0 9.7 0.00 0.00 0.00 86 1014.1
20260906072042 23 15 6.4 9.7 0.00 0.00 0.00 87 1014.0
20260906071542 23 44 6.4 9.7 0.00 0.00 0.00 87 1014.0
20260906070542 23 13 3.2 8.0 0.00 0.00 0.00 87 1014.1
20260906070042 23 35 4.8 8.0 0.00 0.00 0.00 87 1014.0
20260906065542 23 40 6.4 11.3 0.00 0.00 0.00 87 1014.0
20260906065042 23 50 3.2 11.3 0.00 0.00 0.00 87 1014.0
20260906064042 23 24 3.2 9.7 0.00 0.00 0.00 87 1014.1
20260906063542 23 43 4.8 11.3 0.00 0.00 0.00 87 1014.1
20260906063042 23 18 3.2 11.3 0.00 0.00 0.00 87 1014.2
20260906062042 23 39 4.8 4.8 0.00 0.00 0.00 87 1014.2
20260906061542 23 6 3.2 6.4 0.00 0.00 0.00 87 1014.1
20260906061042 23 23 1.6 9.7 0.00 0.00 0.00 87 1014.1
20260906060542 24 91 1.6 9.7 0.00 0.00 0.00 87 1014.0
20260906060042 24 48 3.2 6.4 0.00 0.00 0.00 87 1014.0
20260906055542 24 12 4.8 8.0 0.00 0.00 0.00 87 1013.9
20260906055042 24 37 0.0 8.0 0.00 0.00 0.00 87 1013.8
20260906054542 24 27 1.6 6.4 0.00 0.00 0.00 87 1013.8
20260906054042 24 14 4.8 6.4 0.00 0.00 0.00 87 1013.8
20260906053542 24 20 3.2 6.4 0.00 0.00 0.00 87 1013.8
20260906053042 24 32 1.6 6.4 0.00 0.00 0.00 87 1013.8
20260906052042 24 35 4.8 8.0 0.00 0.00 0.00 87 1013.7
20260906051542 24 27 3.2 8.0 0.00 0.00 0.00 87 1013.7
20260906051042 24 351 4.8 8.0 0.00 0.00 0.00 87 1013.6
20260906050542 25 33 3.2 8.0 0.00 0.00 0.00 86 1013.8
20260906050042 25 16 3.2 9.7 0.00 0.00 0.00 86 1013.6
20260906045542 25 19 4.8 9.7 0.00 0.00 0.00 86 1013.5
20260906045041 25 32 4.8 12.9 0.00 0.00 0.00 86 1013.5
20260906044042 25 60 4.8 12.9 0.00 0.00 0.00 86 1013.5
20260906043542 25 16 3.2 8.0 0.00 0.00 0.00 86 1013.4
20260906043041 25 70 1.6 6.4 0.00 0.00 0.00 86 1013.4
20260906042542 25 10 3.2 8.0 0.00 0.00 0.00 86 1013.3
20260906042041 25 62 4.8 8.0 0.00 0.00 0.00 86 1013.3
20260906041542 25 40 1.6 8.0 0.00 0.00 0.00 86 1013.4
20260906041041 25 38 3.2 8.0 0.00 0.00 0.00 85 1013.4
20260906040542 25 356 3.2 8.0 0.00 0.00 0.00 85 1013.3
20260906040111 25 29 1.6 6.4 0.00 0.00 0.00 85 1013.3
20260906035542 25 1 6.4 8.0 0.00 0.00 0.00 85 1013.2
20260906035042 25 6 1.6 8.0 0.00 0.00 0.00 85 1013.2
20260906034541 25 33 1.6 6.4 0.00 0.00 0.00 84 1013.2
20260906034041 25 36 3.2 8.0 0.00 0.00 0.00 84 1013.1
20260906033541 25 27 1.6 8.0 0.00 0.00 0.00 84 1013.1
20260906033044 25 345 1.6 8.0 0.00 0.00 0.00 84 1013.1
20260906032611 26 49 4.8 11.3 0.00 0.00 0.00 83 1013.1
20260906032111 26 25 4.8 11.3 0.00 0.00 0.00 83 1013.2
20260906031611 26 13 0.0 9.7 0.00 0.00 0.00 82 1013.1
20260906031042 26 38 6.4 12.9 0.00 0.00 0.00 82 1013.1
20260906030541 26 45 3.2 12.9 0.00 0.00 0.00 82 1013.2
20260906030042 26 356 1.6 11.3 0.00 0.00 0.00 81 1013.0
20260906025541 26 12 4.8 11.3 0.00 0.00 0.00 80 1012.9
20260906024041 27 12 6.4 11.3 0.00 0.00 0.00 78 1012.9
20260906023041 27 23 0.0 8.0 0.00 0.00 0.00 77 1012.9
20260906022542 27 356 1.6 11.3 0.00 0.00 0.00 76 1012.8
20260906022041 27 48 3.2 11.3 0.00 0.00 0.00 75 1012.7
20260906021541 27 33 1.6 9.7 0.00 0.00 0.00 75 1012.6
20260906020542 27 34 3.2 8.0 0.00 0.00 0.00 74 1012.4
20260906020042 28 32 4.8 4.8 0.00 0.00 0.00 74 1012.4
20260906015541 28 28 1.6 4.8 0.00 0.00 0.00 74 1012.3
20260906015041 28 52 1.6 4.8 0.00 0.00 0.00 74 1012.2
20260906014611 28 33 1.6 4.8 0.00 0.00 0.00 74 1012.2
20260906014111 28 40 1.6 4.8 0.00 0.00 0.00 74 1012.0
20260906013611 28 27 3.2 4.8 0.00 0.00 0.00 74 1011.9
20260906013041 28 37 0.0 6.4 0.00 0.00 0.00 74 1011.8
20260906012541 28 54 3.2 6.4 0.00 0.00 0.00 74 1011.8
20260906012041 28 31 0.0 3.2 0.00 0.00 0.00 73 1011.9
20260906011541 28 39 0.0 4.8 0.00 0.00 0.00 73 1011.8
20260906011042 28 46 1.6 4.8 0.00 0.00 0.00 73 1011.7
20260906010542 28 38 1.6 6.4 0.00 0.00 0.00 72 1011.6
20260906010041 29 46 1.6 6.4 0.00 0.00 0.00 72 1011.6
20260906005041 29 16 3.2 6.4 0.00 0.00 0.00 71 1011.3
20260906004541 30 43 1.6 6.4 0.00 0.00 0.00 70 1011.2
20260906004041 30 19 0.0 6.4 0.00 0.00 0.00 69 1011.1
20260906003541 30 16 0.0 6.4 0.00 0.00 0.00 69 1011.0
20260906003042 30 6 1.6 8.0 0.00 0.00 0.00 69 1011.0
20260906002541 30 6 0.0 12.9 0.00 0.00 0.00 69 1010.9
20260906001541 30 25 0.0 0.0 0.00 0.00 0.00 71 1011.0
20260906000612 30 25 0.0 0.0 0.00 0.00 0.00 71 1011.0
20260906000111 30 25 0.0 0.0 0.00 0.00 0.00 72 1011.0
20260905235541 30 25 0.0 0.0 0.00 0.00 0.00 72 1011.1
20260905235041 30 25 0.0 1.6 0.00 0.00 0.00 72 1011.1
20260905234541 30 25 0.0 3.2 0.00 0.00 0.00 72 1011.1
20260905234041 31 25 1.6 3.2 0.00 0.00 0.00 73 1011.1
20260905233541 31 6 1.6 3.2 0.00 0.00 0.00 73 1011.0
20260905232541 31 6 0.0 1.6 0.00 0.00 0.00 72 1011.2
20260905231541 31 6 0.0 1.6 0.00 0.00 0.00 72 1011.2
20260905230541 31 6 1.6 6.4 0.00 0.00 0.00 71 1011.1
20260905230041 31 29 3.2 6.4 0.00 0.00 0.00 71 1011.1
20260905225541 31 337 1.6 3.2 0.00 0.00 0.00 70 1011.1
20260905224111 31 352 1.6 8.0 0.00 0.00 0.00 68 1011.0
20260905222541 31 351 6.4 8.0 0.00 0.00 0.00 67 1010.7
20260905221541 32 212 0.0 0.0 0.00 0.00 0.00 67 1011.1
20260905221042 32 212 0.0 0.0 0.00 0.00 0.00 67 1011.0
20260905220111 32 212 0.0 4.8 0.00 0.00 0.00 65 1010.5
20260905215611 32 212 0.0 3.2 0.00 0.00 0.00 65 1010.3
20260905215111 32 141 0.0 0.0 0.00 0.00 0.00 64 1010.4
20260905214041 32 141 0.0 1.6 0.00 0.00 0.00 63 1010.7
20260905213611 32 141 0.0 1.6 0.00 0.00 0.00 63 1010.9
20260905213041 32 85 0.0 1.6 0.00 0.00 0.00 63 1011.0
20260905212610 33 85 0.0 1.6 0.00 0.00 0.00 65 1010.9
20260905212041 33 85 0.0 1.6 0.00 0.00 0.00 61 1010.9
20260905211541 33 85 0.0 1.6 0.00 0.00 0.00 62 1010.8
20260905210541 33 168 0.0 4.8 0.00 0.00 0.00 61 1011.2
20260905210041 33 168 0.0 4.8 0.00 0.00 0.00 58 1011.1
20260905205611 34 222 0.0 1.6 0.00 0.00 0.00 58 1011.1
20260905205041 34 222 0.0 1.6 0.00 0.00 0.00 58 1011.3
20260905204611 34 222 0.0 4.8 0.00 0.00 0.00 59 1011.3
20260905204041 33 222 0.0 4.8 0.00 0.00 0.00 59 1011.2
20260905203610 33 225 0.0 9.7 0.00 0.00 0.00 58 1011.4
20260905203041 33 255 1.6 9.7 0.00 0.00 0.00 58 1011.5
20260905202540 35 254 6.4 9.7 0.00 0.00 0.00 58 1011.5
20260905202040 34 241 0.0 8.0 0.00 0.00 0.00 59 1011.6
20260905201111 33 229 3.2 11.3 0.00 0.00 0.00 58 1011.6
20260905200041 34 252 3.2 11.3 0.00 0.00 0.00 57 1011.6
20260905195540 34 237 8.0 11.3 0.00 0.00 0.00 56 1011.6
20260905195041 35 210 1.6 11.3 0.00 0.00 0.00 56 1011.7
20260905194540 35 196 6.4 11.3 0.00 0.00 0.00 53 1011.9
20260905194041 35 255 0.0 8.0 0.00 0.00 0.00 54 1011.8
20260905193541 35 262 0.0 11.3 0.00 0.00 0.00 56 1011.8
20260905193041 35 247 0.0 11.3 0.00 0.00 0.00 54 1011.9
20260905192541 35 239 4.8 11.3 0.00 0.00 0.00 54 1012.0
20260905192111 35 251 0.0 11.3 0.00 0.00 0.00 56 1012.0
20260905191540 34 228 6.4 12.9 0.00 0.00 0.00 56 1012.2
20260905191041 34 204 4.8 12.9 0.00 0.00 0.00 56 1012.3
20260905190541 34 251 0.0 6.4 0.00 0.00 0.00 56 1012.3
20260905185540 33 208 0.0 11.3 0.00 0.00 0.00 56 1012.5
20260905185111 33 218 0.0 8.0 0.00 0.00 0.00 57 1012.5
20260905184610 34 212 3.2 12.9 0.00 0.00 0.00 55 1012.6
20260905184110 34 244 3.2 12.9 0.00 0.00 0.00 57 1012.7
20260905183540 33 230 4.8 8.0 0.00 0.00 0.00 57 1012.7
20260905183041 33 269 1.6 11.3 0.00 0.00 0.00 57 1012.8
20260905182610 33 249 4.8 11.3 0.00 0.00 0.00 57 1012.8
20260905182110 33 260 3.2 8.0 0.00 0.00 0.00 59 1012.9
20260905181541 33 236 0.0 9.7 0.00 0.00 0.00 58 1013.0
20260905181110 33 201 3.2 9.7 0.00 0.00 0.00 57 1013.1
20260905175540 32 255 6.4 8.0 0.00 0.00 0.00 58 1013.0
20260905174040 32 219 3.2 14.5 0.00 0.00 0.00 57 1013.2
20260905173541 32 243 12.9 14.5 0.00 0.00 0.00 57 1013.1
20260905173041 32 255 11.3 14.5 0.00 0.00 0.00 56 1013.3
20260905172540 32 216 0.0 6.4 0.00 0.00 0.00 58 1013.3
20260905172040 32 211 4.8 12.9 0.00 0.00 0.00 59 1013.3
20260905171541 31 153 6.4 12.9 0.00 0.00 0.00 58 1013.4
20260905171040 31 147 4.8 8.0 0.00 0.00 0.00 58 1013.4
20260905170540 31 166 6.4 8.0 0.00 0.00 0.00 58 1013.5
20260905170040 31 201 1.6 8.0 0.00 0.00 0.00 61 1013.5
20260905165541 31 241 4.8 8.0 0.00 0.00 0.00 61 1013.7
20260905165041 30 143 3.2 9.7 0.00 0.00 0.00 61 1013.7
20260905164540 30 157 1.6 11.3 0.00 0.00 0.00 62 1013.8
20260905163610 30 216 3.2 16.1 0.00 0.00 0.00 62 1013.9
20260905163040 30 238 8.0 16.1 0.00 0.00 0.00 60 1014.0
20260905162610 30 218 6.4 9.7 0.00 0.00 0.00 62 1014.0
20260905162110 29 225 1.6 11.3 0.00 0.00 0.00 63 1014.0
20260905161540 29 162 1.6 11.3 0.00 0.00 0.00 63 1014.0
20260905161041 29 222 4.8 11.3 0.00 0.00 0.00 63 1013.9
20260905160610 28 168 1.6 9.7 0.00 0.00 0.00 63 1014.0
20260905155610 28 166 3.2 14.5 0.00 0.00 0.00 63 1014.0
20260905154540 28 185 3.2 6.4 0.00 0.00 0.00 64 1013.7
20260905154040 28 169 3.2 8.0 0.00 0.00 0.00 66 1013.9
20260905153540 27 232 3.2 11.3 0.00 0.00 0.00 65 1014.1
20260905153110 27 240 6.4 11.3 0.00 0.00 0.00 66 1014.1
20260905152040 27 160 6.4 12.9 0.00 0.00 0.00 66 1014.1
20260905151540 27 246 6.4 11.3 0.00 0.00 0.00 66 1014.1
20260905151040 27 231 4.8 12.9 0.00 0.00 0.00 67 1014.1
20260905150611 27 181 6.4 12.9 0.00 0.00 0.00 66 1014.1
20260905150110 27 160 3.2 11.3 0.00 0.00 0.00 66 1014.1
20260905145610 27 163 6.4 11.3 0.00 0.00 0.00 66 1014.2
20260905145110 27 216 3.2 11.3 0.00 0.00 0.00 68 1014.2
20260905144610 27 139 1.6 9.7 0.00 0.00 0.00 68 1014.2
20260905144040 27 167 4.8 11.3 0.00 0.00 0.00 67 1014.3
20260905143540 26 158 4.8 14.5 0.00 0.00 0.00 67 1014.2
20260905143040 26 168 6.4 14.5 0.00 0.00 0.00 67 1014.3
20260905142540 26 181 3.2 12.9 0.00 0.00 0.00 68 1014.3
20260905142040 26 175 11.3 12.9 0.00 0.00 0.00 70 1014.3
20260905141540 26 123 3.2 14.5 0.00 0.00 0.00 70 1014.4
20260905141040 26 193 3.2 14.5 0.00 0.00 0.00 70 1014.4
20260905140610 25 160 3.2 19.3 0.00 0.00 0.00 70 1014.4
20260905140041 25 180 6.4 19.3 0.00 0.00 0.00 70 1014.3
20260905135540 25 183 9.7 11.3 0.00 0.00 0.00 71 1014.4
20260905134540 25 187 11.3 14.5 0.00 0.00 0.00 72 1014.4
20260905134040 25 130 4.8 14.5 0.00 0.00 0.00 73 1014.4
20260905133540 25 164 8.0 11.3 0.00 0.00 0.00 73 1014.4
20260905132540 25 193 11.3 17.7 0.00 0.00 0.00 74 1014.2
20260905132040 24 167 4.8 17.7 0.00 0.00 0.00 74 1014.2
20260905131040 24 149 0.0 11.3 0.00 0.00 0.00 76 1014.5
20260905130540 23 168 4.8 9.7 0.00 0.00 0.00 76 1014.5
20260905130040 23 149 1.6 9.7 0.00 0.00 0.00 76 1014.6
20260905125610 23 157 3.2 8.0 0.00 0.00 0.00 78 1014.7
20260905125110 23 143 3.2 9.7 0.00 0.00 0.00 78 1014.5
20260905124540 23 55 4.8 9.7 0.00 0.00 0.00 79 1014.5
20260905123540 23 163 1.6 9.7 0.00 0.00 0.00 80 1014.6
20260905123039 23 157 4.8 9.7 0.00 0.00 0.00 80 1014.6
20260905122039 23 37 3.2 6.4 0.00 0.00 0.00 81 1014.5
20260905121540 23 133 1.6 14.5 0.00 0.00 0.00 80 1014.6
20260905121040 23 165 3.2 14.5 0.00 0.00 0.00 80 1014.6
20260905115610 23 158 4.8 9.7 0.00 0.00 0.00 79 1014.5
20260905115040 23 235 1.6 9.7 0.00 0.00 0.00 79 1014.5
20260905114540 23 174 0.0 11.3 0.00 0.00 0.00 78 1014.5
20260905113540 24 31 4.8 11.3 0.00 0.00 0.00 79 1014.1
20260905113039 24 108 4.8 14.5 0.00 0.00 0.00 80 1014.2
20260905112539 24 126 3.2 14.5 0.00 0.00 0.00 80 1014.0
20260905112109 24 54 9.7 24.1 0.00 0.00 0.00 81 1014.1
20260905111609 25 190 6.4 24.1 0.00 0.00 0.00 82 1013.8
20260905111109 25 186 4.8 19.3 0.00 0.00 0.00 87 1013.8
20260905110609 25 24 8.0 17.7 0.00 0.00 0.00 90 1013.7
20260905110039 25 234 4.8 4.8 0.00 0.00 0.00 92 1013.2
20260905105539 25 234 0.0 0.0 0.00 0.00 0.00 92 1013.0
20260905105039 25 234 0.0 0.0 0.00 0.00 0.00 92 1013.0
20260905104539 25 234 0.0 0.0 0.00 0.00 0.00 92 1012.9
20260905104039 25 234 0.0 0.0 0.00 0.00 0.00 92 1012.9
20260905103539 25 234 0.0 0.0 0.00 0.00 0.00 92 1012.9
20260905103039 25 234 0.0 0.0 0.00 0.00 0.00 92 1013.0
20260905102539 25 234 0.0 0.0 0.00 0.00 0.00 92 1012.8
20260905101539 25 234 0.0 0.0 0.00 0.00 0.00 92 1012.9
20260905100539 25 234 0.0 0.0 0.00 0.00 0.00 92 1012.9
20260905100109 25 234 0.0 0.0 0.00 0.00 0.00 92 1012.9
20260905095539 25 234 0.0 0.0 0.00 0.00 0.00 92 1012.8
20260905095039 25 234 0.0 0.0 0.00 0.00 0.00 91 1012.7
20260905094109 25 234 0.0 0.0 0.00 0.00 0.00 91 1012.8
20260905092539 25 234 0.0 0.0 0.00 0.00 0.00 91 1012.8
20260905092039 25 234 0.0 0.0 0.00 0.00 0.00 91 1012.7
20260905091539 25 234 0.0 0.0 0.00 0.00 0.00 91 1012.7
20260905091038 25 234 0.0 0.0 0.00 0.00 0.00 91 1012.8
20260905090608 25 234 0.0 0.0 0.00 0.00 0.00 91 1012.8
20260905090108 25 234 0.0 0.0 0.00 0.00 0.00 91 1012.9
20260905085609 25 234 0.0 0.0 0.00 0.00 0.00 91 1012.8
20260905085108 25 234 0.0 0.0 0.00 0.00 0.00 91 1012.7
20260905084538 25 234 0.0 0.0 0.00 0.00 0.00 91 1012.6
20260905084108 25 234 0.0 0.0 0.00 0.00 0.00 91 1012.7
20260905083538 25 234 0.0 0.0 0.00 0.00 0.00 91 1012.7
20260905083038 25 234 0.0 0.0 0.00 0.00 0.00 91 1012.6
20260905082608 25 234 0.0 0.0 0.00 0.00 0.00 91 1012.5
20260905082108 25 234 0.0 0.0 0.00 0.00 0.00 90 1012.3
20260905080038 25 234 0.0 0.0 0.00 0.00 0.00 90 1012.3
20260905075608 25 234 0.0 0.0 0.00 0.00 0.00 90 1012.3
20260905075107 25 234 0.0 0.0 0.00 0.00 0.00 90 1012.2
20260905074108 25 234 0.0 0.0 0.00 0.00 0.00 90 1012.1